| time (UTC) | temp F | wind direction | speed knots | gust knots | rain 1hr in | rain 24hr in | rain mn in | humidity % | barometer mb |
| 20260902194525 | 64 | 318 | 0.9 | 7.0 | 0.00 | 0.00 | 0.00 | 68 | 1010.1 |
| 20260902194013 | 64 | 198 | 1.7 | 7.0 | 0.00 | 0.00 | 0.00 | 68 | 1010.2 |
| 20260902193513 | 64 | 297 | 3.5 | 7.0 | 0.00 | 0.00 | 0.00 | 67 | 1010.3 |
| 20260902193012 | 65 | 269 | 0.9 | 7.0 | 0.00 | 0.00 | 0.00 | 67 | 1010.3 |
| 20260902192511 | 65 | 313 | 2.6 | 7.0 | 0.00 | 0.00 | 0.00 | 67 | 1010.3 |
| 20260902192010 | 65 | 288 | 2.6 | 7.0 | 0.00 | 0.00 | 0.00 | 66 | 1010.3 |
| 20260902191515 | 65 | 319 | 3.5 | 7.8 | 0.00 | 0.00 | 0.00 | 66 | 1010.1 |
| 20260902191008 | 66 | 299 | 2.6 | 7.8 | 0.00 | 0.00 | 0.00 | 64 | 1010.1 |
| 20260902190507 | 66 | 289 | 2.6 | 7.0 | 0.00 | 0.00 | 0.00 | 63 | 1010.1 |
| 20260902190006 | 66 | 280 | 3.5 | 7.0 | 0.00 | 0.00 | 0.00 | 63 | 1010.3 |
| 20260902185505 | 66 | 265 | 3.5 | 9.6 | 0.00 | 0.00 | 0.00 | 62 | 1010.3 |
| 20260902185005 | 67 | 300 | 3.5 | 9.6 | 0.00 | 0.00 | 0.00 | 62 | 1010.2 |
| 20260902184504 | 67 | 232 | 2.6 | 7.0 | 0.00 | 0.00 | 0.00 | 62 | 1010.3 |
| 20260902184006 | 67 | 254 | 3.5 | 9.6 | 0.00 | 0.00 | 0.00 | 62 | 1010.4 |
| 20260902183503 | 67 | 262 | 3.5 | 8.7 | 0.00 | 0.00 | 0.00 | 62 | 1010.3 |
| 20260902183003 | 67 | 271 | 2.6 | 8.7 | 0.00 | 0.00 | 0.00 | 62 | 1010.5 |
| 20260902182503 | 67 | 254 | 3.5 | 7.8 | 0.00 | 0.00 | 0.00 | 62 | 1010.4 |
| 20260902182002 | 67 | 257 | 2.6 | 7.0 | 0.00 | 0.00 | 0.00 | 62 | 1010.5 |
| 20260902181609 | 67 | 236 | 3.5 | 7.0 | 0.00 | 0.00 | 0.00 | 61 | 1010.6 |
| 20260902181100 | 67 | 276 | 2.6 | 7.0 | 0.00 | 0.00 | 0.00 | 61 | 1010.5 |
| 20260902180559 | 68 | 271 | 2.6 | 7.0 | 0.00 | 0.00 | 0.00 | 60 | 1010.6 |
| 20260902180058 | 68 | 285 | 2.6 | 13.0 | 0.00 | 0.00 | 0.00 | 59 | 1010.6 |
| 20260902175556 | 68 | 246 | 5.2 | 13.0 | 0.00 | 0.00 | 0.00 | 59 | 1010.7 |
| 20260902175057 | 68 | 261 | 5.2 | 14.8 | 0.00 | 0.00 | 0.00 | 59 | 1010.9 |
| 20260902174555 | 68 | 281 | 7.0 | 14.8 | 0.00 | 0.00 | 0.00 | 59 | 1010.9 |
| 20260902174057 | 68 | 284 | 6.1 | 13.0 | 0.00 | 0.00 | 0.00 | 59 | 1010.8 |
| 20260902173554 | 68 | 277 | 5.2 | 12.2 | 0.00 | 0.00 | 0.00 | 59 | 1010.8 |
| 20260902173056 | 68 | 272 | 6.1 | 11.3 | 0.00 | 0.00 | 0.00 | 59 | 1010.9 |
| 20260902172553 | 68 | 242 | 7.0 | 12.2 | 0.00 | 0.00 | 0.00 | 59 | 1011.1 |
| 20260902172054 | 68 | 296 | 6.1 | 12.2 | 0.00 | 0.00 | 0.00 | 59 | 1011.1 |
| 20260902171605 | 68 | 265 | 6.1 | 15.6 | 0.00 | 0.00 | 0.00 | 59 | 1011.2 |
| 20260902171053 | 68 | 223 | 8.7 | 15.6 | 0.00 | 0.00 | 0.00 | 59 | 1011.3 |
| 20260902170549 | 68 | 267 | 7.8 | 14.8 | 0.00 | 0.00 | 0.00 | 59 | 1011.4 |
| 20260902170049 | 68 | 281 | 8.7 | 14.8 | 0.00 | 0.00 | 0.00 | 59 | 1011.5 |
| 20260902165547 | 69 | 266 | 7.0 | 13.0 | 0.00 | 0.00 | 0.00 | 58 | 1011.3 |
| 20260902165046 | 69 | 239 | 7.0 | 13.0 | 0.00 | 0.00 | 0.00 | 58 | 1011.5 |
| 20260902164558 | 69 | 232 | 6.1 | 15.6 | 0.00 | 0.00 | 0.00 | 58 | 1011.5 |
| 20260902164045 | 69 | 292 | 8.7 | 15.6 | 0.00 | 0.00 | 0.00 | 58 | 1011.6 |
| 20260902163545 | 68 | 260 | 7.0 | 12.2 | 0.00 | 0.00 | 0.00 | 58 | 1011.5 |
| 20260902163044 | 68 | 240 | 7.0 | 12.2 | 0.00 | 0.00 | 0.00 | 58 | 1011.5 |
| 20260902162543 | 69 | 250 | 4.3 | 18.2 | 0.00 | 0.00 | 0.00 | 57 | 1011.6 |
| 20260902162043 | 69 | 235 | 7.0 | 18.2 | 0.00 | 0.00 | 0.00 | 56 | 1011.7 |
| 20260902161546 | 69 | 257 | 6.1 | 13.9 | 0.00 | 0.00 | 0.00 | 56 | 1011.7 |
| 20260902161042 | 70 | 299 | 4.3 | 13.9 | 0.00 | 0.00 | 0.00 | 56 | 1011.7 |
| 20260902160540 | 70 | 313 | 6.1 | 14.8 | 0.00 | 0.00 | 0.00 | 56 | 1011.9 |
| 20260902160046 | 69 | 267 | 7.0 | 13.9 | 0.00 | 0.00 | 0.00 | 56 | 1012.2 |
| 20260902155538 | 68 | 240 | 5.2 | 10.4 | 0.00 | 0.00 | 0.00 | 56 | 1012.3 |
| 20260902155038 | 68 | 246 | 3.5 | 9.6 | 0.00 | 0.00 | 0.00 | 55 | 1012.2 |
| 20260902154550 | 68 | 273 | 3.5 | 7.0 | 0.00 | 0.00 | 0.00 | 55 | 1012.3 |
| 20260902154038 | 69 | 313 | 2.6 | 5.2 | 0.00 | 0.00 | 0.00 | 54 | 1012.3 |
| 20260902153534 | 69 | 324 | 2.6 | 8.7 | 0.00 | 0.00 | 0.00 | 54 | 1012.6 |
| 20260902153036 | 69 | 295 | 2.6 | 10.4 | 0.00 | 0.00 | 0.00 | 53 | 1012.7 |
| 20260902152532 | 69 | 243 | 4.3 | 10.4 | 0.00 | 0.00 | 0.00 | 53 | 1012.9 |
| 20260902152036 | 69 | 266 | 5.2 | 9.6 | 0.00 | 0.00 | 0.00 | 53 | 1012.9 |
| 20260902151537 | 69 | 259 | 3.5 | 9.6 | 0.00 | 0.00 | 0.00 | 53 | 1012.9 |
| 20260902151030 | 69 | 273 | 5.2 | 16.5 | 0.00 | 0.00 | 0.00 | 53 | 1013.1 |
| 20260902150530 | 69 | 269 | 5.2 | 16.5 | 0.00 | 0.00 | 0.00 | 53 | 1013.0 |
| 20260902150030 | 69 | 259 | 5.2 | 9.6 | 0.00 | 0.00 | 0.00 | 53 | 1013.0 |
| 20260902145529 | 69 | 290 | 3.5 | 11.3 | 0.00 | 0.00 | 0.00 | 53 | 1013.1 |
| 20260902145031 | 69 | 275 | 5.2 | 13.0 | 0.00 | 0.00 | 0.00 | 53 | 1013.1 |
| 20260902144529 | 69 | 277 | 5.2 | 13.0 | 0.00 | 0.00 | 0.00 | 53 | 1013.1 |
| 20260902144028 | 69 | 291 | 5.2 | 9.6 | 0.00 | 0.00 | 0.00 | 53 | 1013.1 |
| 20260902143527 | 69 | 294 | 4.3 | 9.6 | 0.00 | 0.00 | 0.00 | 53 | 1013.1 |
| 20260902143127 | 69 | 282 | 4.3 | 9.6 | 0.00 | 0.00 | 0.00 | 53 | 1013.1 |
| 20260902142526 | 69 | 257 | 4.3 | 10.4 | 0.00 | 0.00 | 0.00 | 52 | 1013.2 |
| 20260902142025 | 69 | 294 | 5.2 | 10.4 | 0.00 | 0.00 | 0.00 | 52 | 1013.2 |
| 20260902141533 | 69 | 263 | 5.2 | 9.6 | 0.00 | 0.00 | 0.00 | 52 | 1013.2 |
| 20260902141024 | 69 | 292 | 5.2 | 12.2 | 0.00 | 0.00 | 0.00 | 52 | 1013.3 |
| 20260902140523 | 69 | 278 | 5.2 | 12.2 | 0.00 | 0.00 | 0.00 | 53 | 1013.2 |
| 20260902140021 | 69 | 254 | 5.2 | 11.3 | 0.00 | 0.00 | 0.00 | 53 | 1013.2 |
| 20260902135521 | 69 | 295 | 4.3 | 9.6 | 0.00 | 0.00 | 0.00 | 53 | 1013.2 |
| 20260902135021 | 68 | 281 | 5.2 | 11.3 | 0.00 | 0.00 | 0.00 | 54 | 1013.3 |
| 20260902134522 | 68 | 274 | 4.3 | 11.3 | 0.00 | 0.00 | 0.00 | 55 | 1013.4 |
| 20260902134021 | 67 | 235 | 2.6 | 7.8 | 0.00 | 0.00 | 0.00 | 56 | 1013.4 |
| 20260902133529 | 67 | 284 | 2.6 | 7.8 | 0.00 | 0.00 | 0.00 | 56 | 1013.5 |
| 20260902133021 | 66 | 267 | 2.6 | 7.8 | 0.00 | 0.00 | 0.00 | 56 | 1013.5 |
| 20260902132524 | 67 | 303 | 2.6 | 7.8 | 0.00 | 0.00 | 0.00 | 55 | 1013.5 |
| 20260902132020 | 67 | 267 | 1.7 | 7.0 | 0.00 | 0.00 | 0.00 | 55 | 1013.4 |
| 20260902131520 | 67 | 308 | 1.7 | 5.2 | 0.00 | 0.00 | 0.00 | 54 | 1013.4 |
| 20260902131020 | 67 | 294 | 1.7 | 4.3 | 0.00 | 0.00 | 0.00 | 54 | 1013.5 |
| 20260902130519 | 67 | 289 | 0.9 | 7.0 | 0.00 | 0.00 | 0.00 | 53 | 1013.5 |
| 20260902130030 | 68 | 275 | 1.7 | 7.0 | 0.00 | 0.00 | 0.00 | 52 | 1013.6 |
| 20260902125521 | 68 | 275 | 1.7 | 5.2 | 0.00 | 0.00 | 0.00 | 52 | 1013.7 |
| 20260902125019 | 68 | 294 | 1.7 | 2.6 | 0.00 | 0.00 | 0.00 | 52 | 1013.6 |
| 20260902124519 | 69 | 288 | 1.7 | 2.6 | 0.00 | 0.00 | 0.00 | 51 | 1013.6 |
| 20260902124019 | 69 | 286 | 1.7 | 3.5 | 0.00 | 0.00 | 0.00 | 50 | 1013.7 |
| 20260902123519 | 70 | 252 | 0.9 | 4.3 | 0.00 | 0.00 | 0.00 | 49 | 1013.7 |
| 20260902123027 | 71 | 272 | 1.7 | 5.2 | 0.00 | 0.00 | 0.00 | 48 | 1013.7 |
| 20260902122519 | 71 | 266 | 1.7 | 6.1 | 0.00 | 0.00 | 0.00 | 47 | 1013.8 |
| 20260902122018 | 72 | 267 | 2.6 | 6.1 | 0.00 | 0.00 | 0.00 | 46 | 1013.9 |
| 20260902121519 | 72 | 252 | 2.6 | 6.1 | 0.00 | 0.00 | 0.00 | 46 | 1014.0 |
| 20260902121021 | 72 | 279 | 2.6 | 9.6 | 0.00 | 0.00 | 0.00 | 46 | 1014.1 |
| 20260902120519 | 72 | 286 | 2.6 | 11.3 | 0.00 | 0.00 | 0.00 | 46 | 1014.1 |
| 20260902120017 | 72 | 263 | 2.6 | 7.0 | 0.00 | 0.00 | 0.00 | 46 | 1014.1 |
| 20260902115517 | 72 | 239 | 2.6 | 7.8 | 0.00 | 0.00 | 0.00 | 45 | 1014.1 |
| 20260902115017 | 73 | 266 | 2.6 | 7.8 | 0.00 | 0.00 | 0.00 | 45 | 1014.2 |
| 20260902114524 | 72 | 267 | 2.6 | 7.0 | 0.00 | 0.00 | 0.00 | 45 | 1014.2 |
| 20260902114017 | 72 | 254 | 3.5 | 7.0 | 0.00 | 0.00 | 0.00 | 45 | 1014.2 |
| 20260902113516 | 73 | 275 | 2.6 | 7.8 | 0.00 | 0.00 | 0.00 | 44 | 1014.2 |
| 20260902113016 | 73 | 284 | 2.6 | 7.8 | 0.00 | 0.00 | 0.00 | 44 | 1014.2 |
| 20260902112516 | 73 | 271 | 3.5 | 8.7 | 0.00 | 0.00 | 0.00 | 43 | 1014.2 |
| 20260902112017 | 73 | 263 | 2.6 | 8.7 | 0.00 | 0.00 | 0.00 | 43 | 1014.2 |
| 20260902111518 | 73 | 270 | 3.5 | 8.7 | 0.00 | 0.00 | 0.00 | 43 | 1014.2 |
| 20260902111017 | 74 | 283 | 4.3 | 10.4 | 0.00 | 0.00 | 0.00 | 43 | 1014.2 |
| 20260902110515 | 74 | 262 | 5.2 | 10.4 | 0.00 | 0.00 | 0.00 | 42 | 1014.1 |
| 20260902110015 | 74 | 269 | 6.1 | 10.4 | 0.00 | 0.00 | 0.00 | 42 | 1014.1 |
| 20260902105515 | 74 | 282 | 5.2 | 14.8 | 0.00 | 0.00 | 0.00 | 42 | 1014.2 |
| 20260902105019 | 74 | 264 | 7.8 | 14.8 | 0.00 | 0.00 | 0.00 | 42 | 1014.2 |
| 20260902104521 | 74 | 249 | 7.0 | 11.3 | 0.00 | 0.00 | 0.00 | 43 | 1014.1 |
| 20260902104015 | 74 | 306 | 5.2 | 10.4 | 0.00 | 0.00 | 0.00 | 43 | 1014.1 |
| 20260902103514 | 74 | 300 | 5.2 | 10.4 | 0.00 | 0.00 | 0.00 | 44 | 1014.2 |
| 20260902103014 | 74 | 219 | 5.2 | 10.4 | 0.00 | 0.00 | 0.00 | 44 | 1014.2 |
| 20260902102514 | 74 | 233 | 3.5 | 9.6 | 0.00 | 0.00 | 0.00 | 44 | 1014.1 |
| 20260902102015 | 74 | 258 | 4.3 | 10.4 | 0.00 | 0.00 | 0.00 | 44 | 1014.1 |
| 20260902101513 | 74 | 280 | 6.1 | 11.3 | 0.00 | 0.00 | 0.00 | 44 | 1014.1 |
| 20260902101013 | 74 | 271 | 4.3 | 11.3 | 0.00 | 0.00 | 0.00 | 44 | 1014.0 |
| 20260902100513 | 74 | 276 | 4.3 | 8.7 | 0.00 | 0.00 | 0.00 | 44 | 1013.8 |
| 20260902100013 | 74 | 271 | 4.3 | 8.7 | 0.00 | 0.00 | 0.00 | 45 | 1013.7 |
| 20260902095512 | 73 | 245 | 4.3 | 7.8 | 0.00 | 0.00 | 0.00 | 45 | 1013.7 |
| 20260902095011 | 74 | 258 | 2.6 | 7.8 | 0.00 | 0.00 | 0.00 | 45 | 1013.8 |
| 20260902094512 | 73 | 236 | 3.5 | 7.0 | 0.00 | 0.00 | 0.00 | 45 | 1013.9 |
| 20260902094012 | 73 | 269 | 3.5 | 7.0 | 0.00 | 0.00 | 0.00 | 45 | 1013.7 |
| 20260902093511 | 73 | 283 | 2.6 | 5.2 | 0.00 | 0.00 | 0.00 | 46 | 1013.7 |
| 20260902093112 | 73 | 276 | 2.6 | 6.1 | 0.00 | 0.00 | 0.00 | 46 | 1013.6 |
| 20260902092511 | 73 | 279 | 2.6 | 7.0 | 0.00 | 0.00 | 0.00 | 47 | 1013.6 |
| 20260902092015 | 73 | 269 | 2.6 | 6.1 | 0.00 | 0.00 | 0.00 | 47 | 1013.5 |
| 20260902091511 | 73 | 226 | 2.6 | 7.8 | 0.00 | 0.00 | 0.00 | 49 | 1013.5 |
| 20260902091014 | 73 | 262 | 3.5 | 7.8 | 0.00 | 0.00 | 0.00 | 49 | 1013.3 |
| 20260902090510 | 72 | 232 | 3.5 | 7.0 | 0.00 | 0.00 | 0.00 | 52 | 1013.3 |
| 20260902090012 | 72 | 282 | 3.5 | 6.1 | 0.00 | 0.00 | 0.00 | 53 | 1013.3 |
| 20260902085511 | 72 | 285 | 2.6 | 6.1 | 0.00 | 0.00 | 0.00 | 53 | 1013.3 |
| 20260902085010 | 73 | 275 | 3.5 | 6.1 | 0.00 | 0.00 | 0.00 | 53 | 1013.2 |
| 20260902084510 | 73 | 284 | 3.5 | 6.1 | 0.00 | 0.00 | 0.00 | 53 | 1013.2 |
| 20260902084010 | 73 | 279 | 2.6 | 6.1 | 0.00 | 0.00 | 0.00 | 53 | 1013.2 |
| 20260902083510 | 73 | 263 | 2.6 | 6.1 | 0.00 | 0.00 | 0.00 | 53 | 1013.1 |
| 20260902083010 | 73 | 279 | 2.6 | 6.1 | 0.00 | 0.00 | 0.00 | 53 | 1013.1 |
| 20260902082509 | 73 | 264 | 1.7 | 6.1 | 0.00 | 0.00 | 0.00 | 52 | 1013.0 |
| 20260902082009 | 73 | 261 | 2.6 | 5.2 | 0.00 | 0.00 | 0.00 | 52 | 1013.0 |
| 20260902081509 | 73 | 297 | 1.7 | 4.3 | 0.00 | 0.00 | 0.00 | 52 | 1012.9 |
| 20260902081010 | 74 | 273 | 1.7 | 3.5 | 0.00 | 0.00 | 0.00 | 51 | 1012.9 |
| 20260902080509 | 74 | 254 | 0.9 | 3.5 | 0.00 | 0.00 | 0.00 | 51 | 1012.8 |
| 20260902080008 | 74 | 251 | 1.7 | 3.5 | 0.00 | 0.00 | 0.00 | 50 | 1012.8 |
| 20260902075508 | 75 | 270 | 0.9 | 3.5 | 0.00 | 0.00 | 0.00 | 49 | 1012.8 |
| 20260902075008 | 75 | 284 | 1.7 | 6.1 | 0.00 | 0.00 | 0.00 | 48 | 1012.7 |
| 20260902074507 | 76 | 253 | 1.7 | 6.1 | 0.00 | 0.00 | 0.00 | 48 | 1012.6 |
| 20260902074009 | 76 | 281 | 1.7 | 7.8 | 0.00 | 0.00 | 0.00 | 47 | 1012.6 |
| 20260902073507 | 76 | 248 | 2.6 | 7.8 | 0.00 | 0.00 | 0.00 | 46 | 1012.5 |
| 20260902073020 | 77 | 266 | 3.5 | 9.6 | 0.00 | 0.00 | 0.00 | 46 | 1012.4 |
| 20260902072507 | 77 | 269 | 4.3 | 11.3 | 0.00 | 0.00 | 0.00 | 45 | 1012.4 |
| 20260902072007 | 77 | 252 | 4.3 | 13.0 | 0.00 | 0.00 | 0.00 | 45 | 1012.4 |
| 20260902071507 | 78 | 272 | 4.3 | 8.7 | 0.00 | 0.00 | 0.00 | 45 | 1012.4 |
| 20260902071007 | 78 | 309 | 4.3 | 8.7 | 0.00 | 0.00 | 0.00 | 44 | 1012.4 |
| 20260902070505 | 78 | 290 | 3.5 | 9.6 | 0.00 | 0.00 | 0.00 | 44 | 1012.4 |
| 20260902070007 | 78 | 281 | 3.5 | 8.7 | 0.00 | 0.00 | 0.00 | 44 | 1012.4 |
| 20260902065506 | 78 | 265 | 3.5 | 10.4 | 0.00 | 0.00 | 0.00 | 44 | 1012.3 |
| 20260902065006 | 78 | 242 | 6.1 | 10.4 | 0.00 | 0.00 | 0.00 | 43 | 1012.3 |
| 20260902064505 | 79 | 223 | 5.2 | 10.4 | 0.00 | 0.00 | 0.00 | 43 | 1012.3 |
| 20260902064005 | 79 | 281 | 5.2 | 11.3 | 0.00 | 0.00 | 0.00 | 42 | 1012.3 |
| 20260902063505 | 79 | 276 | 4.3 | 12.2 | 0.00 | 0.00 | 0.00 | 43 | 1012.2 |
| 20260902063012 | 79 | 238 | 5.2 | 14.8 | 0.00 | 0.00 | 0.00 | 43 | 1012.2 |
| 20260902062505 | 79 | 265 | 5.2 | 14.8 | 0.00 | 0.00 | 0.00 | 43 | 1012.2 |
| 20260902062005 | 78 | 282 | 6.1 | 13.0 | 0.00 | 0.00 | 0.00 | 43 | 1012.2 |
| 20260902061505 | 79 | 294 | 7.8 | 12.2 | 0.00 | 0.00 | 0.00 | 43 | 1012.2 |
| 20260902061011 | 78 | 260 | 7.8 | 13.0 | 0.00 | 0.00 | 0.00 | 44 | 1012.2 |
| 20260902060506 | 78 | 256 | 7.8 | 13.0 | 0.00 | 0.00 | 0.00 | 43 | 1012.2 |
| 20260902060003 | 79 | 281 | 7.8 | 13.0 | 0.00 | 0.00 | 0.00 | 43 | 1012.1 |
| 20260902055503 | 79 | 238 | 7.0 | 13.0 | 0.00 | 0.00 | 0.00 | 44 | 1012.2 |
| 20260902055003 | 79 | 221 | 5.2 | 13.0 | 0.00 | 0.00 | 0.00 | 44 | 1012.1 |
| 20260902054510 | 79 | 240 | 7.0 | 13.9 | 0.00 | 0.00 | 0.00 | 44 | 1012.2 |
| 20260902054002 | 79 | 290 | 7.0 | 13.9 | 0.00 | 0.00 | 0.00 | 43 | 1012.2 |
| 20260902053502 | 79 | 229 | 7.0 | 14.8 | 0.00 | 0.00 | 0.00 | 43 | 1012.3 |
| 20260902053001 | 79 | 292 | 6.1 | 14.8 | 0.00 | 0.00 | 0.00 | 43 | 1012.3 |
| 20260902052501 | 79 | 287 | 6.1 | 14.8 | 0.00 | 0.00 | 0.00 | 43 | 1012.4 |
| 20260902052000 | 79 | 220 | 7.8 | 15.6 | 0.00 | 0.00 | 0.00 | 44 | 1012.3 |
| 20260902051609 | 79 | 245 | 7.8 | 15.6 | 0.00 | 0.00 | 0.00 | 44 | 1012.3 |
| 20260902051001 | 78 | 229 | 5.2 | 14.8 | 0.00 | 0.00 | 0.00 | 44 | 1012.3 |
| 20260902050600 | 78 | 273 | 7.0 | 14.8 | 0.00 | 0.00 | 0.00 | 44 | 1012.3 |
| 20260902050100 | 78 | 275 | 7.0 | 13.9 | 0.00 | 0.00 | 0.00 | 44 | 1012.4 |
| 20260902045559 | 79 | 261 | 7.0 | 13.9 | 0.00 | 0.00 | 0.00 | 43 | 1012.3 |
| 20260902045059 | 79 | 238 | 8.7 | 20.9 | 0.00 | 0.00 | 0.00 | 43 | 1012.3 |
| 20260902044559 | 78 | 285 | 11.3 | 20.9 | 0.00 | 0.00 | 0.00 | 43 | 1012.4 |
| 20260902044059 | 78 | 279 | 6.1 | 13.9 | 0.00 | 0.00 | 0.00 | 45 | 1012.4 |
| 20260902043558 | 78 | 277 | 6.1 | 18.2 | 0.00 | 0.00 | 0.00 | 44 | 1012.4 |
| 20260902043058 | 79 | 246 | 9.6 | 18.2 | 0.00 | 0.00 | 0.00 | 43 | 1012.4 |
| 20260902042601 | 79 | 290 | 6.1 | 13.0 | 0.00 | 0.00 | 0.00 | 43 | 1012.4 |
| 20260902042058 | 79 | 302 | 7.0 | 15.6 | 0.00 | 0.00 | 0.00 | 44 | 1012.5 |
| 20260902041608 | 78 | 242 | 6.1 | 20.9 | 0.00 | 0.00 | 0.00 | 44 | 1012.5 |
| 20260902041058 | 78 | 271 | 9.6 | 20.9 | 0.00 | 0.00 | 0.00 | 43 | 1012.5 |
| 20260902040556 | 78 | 276 | 6.1 | 15.6 | 0.00 | 0.00 | 0.00 | 44 | 1012.5 |
| 20260902040056 | 79 | 293 | 7.8 | 14.8 | 0.00 | 0.00 | 0.00 | 43 | 1012.6 |
| 20260902035555 | 79 | 261 | 8.7 | 17.4 | 0.00 | 0.00 | 0.00 | 43 | 1012.5 |
| 20260902035054 | 79 | 246 | 7.8 | 17.4 | 0.00 | 0.00 | 0.00 | 43 | 1012.6 |
| 20260902034555 | 79 | 276 | 6.1 | 14.8 | 0.00 | 0.00 | 0.00 | 43 | 1012.7 |
| 20260902034055 | 79 | 281 | 7.8 | 13.9 | 0.00 | 0.00 | 0.00 | 43 | 1012.8 |
| 20260902033551 | 79 | 217 | 7.0 | 17.4 | 0.00 | 0.00 | 0.00 | 43 | 1012.8 |
| 20260902033055 | 79 | 279 | 7.8 | 18.2 | 0.00 | 0.00 | 0.00 | 43 | 1012.9 |
| 20260902032550 | 78 | 247 | 8.7 | 18.2 | 0.00 | 0.00 | 0.00 | 43 | 1012.9 |
| 20260902032048 | 78 | 244 | 8.7 | 14.8 | 0.00 | 0.00 | 0.00 | 44 | 1013.0 |
| 20260902031548 | 78 | 250 | 8.7 | 21.7 | 0.00 | 0.00 | 0.00 | 43 | 1013.1 |
| 20260902031047 | 78 | 259 | 9.6 | 21.7 | 0.00 | 0.00 | 0.00 | 43 | 1013.2 |
| 20260902030545 | 78 | 287 | 7.8 | 14.8 | 0.00 | 0.00 | 0.00 | 44 | 1013.4 |
| 20260902030048 | 78 | 288 | 7.8 | 14.8 | 0.00 | 0.00 | 0.00 | 44 | 1013.5 |
| 20260902025543 | 78 | 226 | 8.7 | 14.8 | 0.00 | 0.00 | 0.00 | 43 | 1013.6 |
| 20260902025042 | 78 | 325 | 7.0 | 14.8 | 0.00 | 0.00 | 0.00 | 44 | 1013.7 |
| 20260902024540 | 78 | 234 | 9.6 | 14.8 | 0.00 | 0.00 | 0.00 | 44 | 1013.8 |
| 20260902024040 | 78 | 210 | 7.0 | 18.2 | 0.00 | 0.00 | 0.00 | 44 | 1014.0 |
| 20260902023538 | 77 | 296 | 7.8 | 18.2 | 0.00 | 0.00 | 0.00 | 45 | 1014.0 |
| 20260902023043 | 77 | 278 | 9.6 | 20.9 | 0.00 | 0.00 | 0.00 | 45 | 1014.2 |
| 20260902022534 | 76 | 348 | 9.6 | 20.9 | 0.00 | 0.00 | 0.00 | 46 | 1014.3 |
| 20260902022033 | 76 | 276 | 8.7 | 18.2 | 0.00 | 0.00 | 0.00 | 46 | 1014.4 |
| 20260902021542 | 75 | 236 | 7.0 | 15.6 | 0.00 | 0.00 | 0.00 | 48 | 1014.5 |
| 20260902021031 | 74 | 243 | 9.6 | 19.1 | 0.00 | 0.00 | 0.00 | 47 | 1014.7 |
| 20260902020530 | 74 | 266 | 9.6 | 20.9 | 0.00 | 0.00 | 0.00 | 47 | 1014.8 |
| 20260902020030 | 74 | 234 | 10.4 | 20.9 | 0.00 | 0.00 | 0.00 | 47 | 1015.0 |
| 20260902015530 | 74 | 267 | 11.3 | 20.0 | 0.00 | 0.00 | 0.00 | 47 | 1015.0 |
| 20260902015028 | 74 | 268 | 8.7 | 20.0 | 0.00 | 0.00 | 0.00 | 47 | 1015.0 |
| 20260902014527 | 74 | 305 | 7.8 | 20.0 | 0.00 | 0.00 | 0.00 | 48 | 1015.2 |
| 20260902014026 | 74 | 250 | 11.3 | 16.5 | 0.00 | 0.00 | 0.00 | 47 | 1015.3 |
| 20260902013529 | 74 | 244 | 9.6 | 20.0 | 0.00 | 0.00 | 0.00 | 47 | 1015.4 |
| 20260902013024 | 74 | 277 | 9.6 | 20.0 | 0.00 | 0.00 | 0.00 | 47 | 1015.5 |
| 20260902012523 | 74 | 243 | 6.1 | 20.9 | 0.00 | 0.00 | 0.00 | 48 | 1015.6 |
| 20260902012021 | 74 | 273 | 10.4 | 20.0 | 0.00 | 0.00 | 0.00 | 47 | 1015.7 |
| 20260902011521 | 74 | 267 | 9.6 | 17.4 | 0.00 | 0.00 | 0.00 | 48 | 1015.8 |
| 20260902011021 | 73 | 243 | 4.3 | 7.8 | 0.00 | 0.00 | 0.00 | 53 | 1015.9 |
| 20260902010517 | 72 | 261 | 3.5 | 10.4 | 0.00 | 0.00 | 0.00 | 54 | 1016.1 |
| 20260902010016 | 71 | 302 | 5.2 | 11.3 | 0.00 | 0.00 | 0.00 | 54 | 1016.1 |
| 20260902005517 | 71 | 294 | 3.5 | 16.5 | 0.00 | 0.00 | 0.00 | 54 | 1016.2 |
| 20260902005015 | 71 | 250 | 5.2 | 16.5 | 0.00 | 0.00 | 0.00 | 55 | 1016.4 |
| 20260902004517 | 70 | 278 | 7.0 | 14.8 | 0.00 | 0.00 | 0.00 | 55 | 1016.4 |
| 20260902004012 | 69 | 251 | 4.3 | 15.6 | 0.00 | 0.00 | 0.00 | 56 | 1016.4 |
| 20260902003511 | 69 | 274 | 9.6 | 17.4 | 0.00 | 0.00 | 0.00 | 55 | 1016.5 |
| 20260902003010 | 69 | 240 | 7.8 | 16.5 | 0.00 | 0.00 | 0.00 | 56 | 1016.4 |
| 20260902002510 | 69 | 307 | 7.0 | 17.4 | 0.00 | 0.00 | 0.00 | 56 | 1016.5 |
| 20260902002015 | 68 | 315 | 7.8 | 17.4 | 0.00 | 0.00 | 0.00 | 56 | 1016.6 |
| 20260902001509 | 68 | 288 | 8.7 | 17.4 | 0.00 | 0.00 | 0.00 | 56 | 1016.6 |
| 20260902001009 | 68 | 256 | 7.0 | 12.2 | 0.00 | 0.00 | 0.00 | 57 | 1016.7 |
| 20260902000508 | 68 | 247 | 7.0 | 12.2 | 0.00 | 0.00 | 0.00 | 57 | 1016.9 |
| 20260902000009 | 68 | 244 | 6.1 | 11.3 | 0.00 | 0.00 | 0.00 | 57 | 1017.0 |
| 20260901235508 | 68 | 266 | 6.1 | 13.0 | 0.00 | 0.00 | 0.00 | 57 | 1017.1 |
| 20260901235007 | 68 | 251 | 7.0 | 13.0 | 0.00 | 0.00 | 0.00 | 57 | 1017.1 |
| 20260901234508 | 68 | 267 | 6.1 | 13.0 | 0.00 | 0.00 | 0.00 | 56 | 1017.0 |
| 20260901234008 | 68 | 267 | 7.0 | 13.0 | 0.00 | 0.00 | 0.00 | 56 | 1017.0 |
| 20260901233507 | 67 | 264 | 7.8 | 16.5 | 0.00 | 0.00 | 0.00 | 56 | 1017.2 |
| 20260901233007 | 67 | 278 | 7.8 | 20.0 | 0.00 | 0.00 | 0.00 | 56 | 1017.2 |
| 20260901232507 | 67 | 253 | 9.6 | 20.0 | 0.00 | 0.00 | 0.00 | 55 | 1017.2 |
| 20260901232006 | 67 | 285 | 9.6 | 16.5 | 0.00 | 0.00 | 0.00 | 55 | 1017.3 |
| 20260901231509 | 67 | 285 | 8.7 | 15.6 | 0.00 | 0.00 | 0.00 | 55 | 1017.4 |
| 20260901231007 | 67 | 298 | 8.7 | 20.9 | 0.00 | 0.00 | 0.00 | 56 | 1017.4 |
| 20260901230506 | 67 | 279 | 7.8 | 20.9 | 0.00 | 0.00 | 0.00 | 56 | 1017.5 |
| 20260901230006 | 67 | 259 | 7.8 | 15.6 | 0.00 | 0.00 | 0.00 | 56 | 1017.6 |
| 20260901225506 | 67 | 278 | 7.8 | 15.6 | 0.00 | 0.00 | 0.00 | 57 | 1017.7 |
| 20260901225007 | 67 | 247 | 7.8 | 17.4 | 0.00 | 0.00 | 0.00 | 57 | 1017.8 |
| 20260901224506 | 67 | 306 | 8.7 | 17.4 | 0.00 | 0.00 | 0.00 | 58 | 1017.7 |
| 20260901224005 | 66 | 267 | 10.4 | 16.5 | 0.00 | 0.00 | 0.00 | 59 | 1017.7 |
| 20260901223505 | 66 | 265 | 5.2 | 13.0 | 0.00 | 0.00 | 0.00 | 61 | 1017.8 |
| 20260901223013 | 67 | 313 | 6.1 | 10.4 | 0.00 | 0.00 | 0.00 | 61 | 1017.9 |
| 20260901222506 | 67 | 251 | 3.5 | 10.4 | 0.00 | 0.00 | 0.00 | 59 | 1017.9 |
| 20260901222007 | 68 | 273 | 2.6 | 11.3 | 0.00 | 0.00 | 0.00 | 59 | 1018.0 |
| 20260901221504 | 69 | 288 | 5.2 | 11.3 | 0.00 | 0.00 | 0.00 | 58 | 1018.1 |
| 20260901221004 | 68 | 46 | 3.5 | 10.4 | 0.00 | 0.00 | 0.00 | 54 | 1017.7 |
| 20260901220501 | 68 | 261 | 7.0 | 11.3 | 0.00 | 0.00 | 0.00 | 55 | 1017.9 |
| 20260901220130 | 68 | 254 | 5.2 | 11.3 | 0.00 | 0.00 | 0.00 | 56 | 1017.9 |
| 20260901215601 | 67 | 303 | 4.3 | 7.8 | 0.00 | 0.00 | 0.00 | 57 | 1017.8 |
| 20260901215101 | 67 | 232 | 3.5 | 8.7 | 0.00 | 0.00 | 0.00 | 58 | 1017.7 |
| 20260901214556 | 66 | 250 | 4.3 | 13.0 | 0.00 | 0.00 | 0.00 | 58 | 1017.7 |
| 20260901214056 | 66 | 273 | 3.5 | 13.0 | 0.00 | 0.00 | 0.00 | 59 | 1017.7 |
| 20260901213556 | 65 | 275 | 3.5 | 11.3 | 0.00 | 0.00 | 0.00 | 60 | 1017.6 |
| 20260901213116 | 65 | 297 | 5.2 | 11.3 | 0.00 | 0.00 | 0.00 | 60 | 1017.6 |
| 20260901212556 | 65 | 246 | 4.3 | 9.6 | 0.00 | 0.00 | 0.00 | 59 | 1017.5 |
| 20260901212056 | 65 | 254 | 3.5 | 10.4 | 0.00 | 0.00 | 0.00 | 59 | 1017.3 |
| 20260901211601 | 66 | 240 | 4.3 | 10.4 | 0.00 | 0.00 | 0.00 | 58 | 1017.3 |
| 20260901211056 | 66 | 286 | 3.5 | 12.2 | 0.00 | 0.00 | 0.00 | 58 | 1017.3 |
| 20260901210555 | 66 | 242 | 4.3 | 15.6 | 0.00 | 0.00 | 0.00 | 57 | 1017.2 |
| 20260901205554 | 66 | 270 | 5.2 | 17.4 | 0.00 | 0.00 | 0.00 | 57 | 1017.2 |
| 20260901205054 | 66 | 302 | 6.1 | 17.4 | 0.00 | 0.00 | 0.00 | 57 | 1017.0 |
| 20260901204559 | 66 | 292 | 7.8 | 13.9 | 0.00 | 0.00 | 0.00 | 57 | 1017.0 |
| 20260901204054 | 65 | 258 | 7.8 | 13.9 | 0.00 | 0.00 | 0.00 | 59 | 1017.1 |
| 20260901203551 | 65 | 265 | 5.2 | 11.3 | 0.00 | 0.00 | 0.00 | 59 | 1017.1 |
| 20260901203101 | 65 | 261 | 5.2 | 12.2 | 0.00 | 0.00 | 0.00 | 60 | 1017.0 |
| 20260901202551 | 65 | 270 | 6.1 | 12.2 | 0.00 | 0.00 | 0.00 | 60 | 1017.0 |
| 20260901202054 | 64 | 231 | 6.1 | 13.0 | 0.00 | 0.00 | 0.00 | 60 | 1017.0 |
| 20260901201550 | 64 | 242 | 4.3 | 13.0 | 0.00 | 0.00 | 0.00 | 61 | 1017.0 |
| 20260901201050 | 64 | 279 | 5.2 | 14.8 | 0.00 | 0.00 | 0.00 | 61 | 1016.7 |
| 20260901200549 | 64 | 230 | 6.1 | 14.8 | 0.00 | 0.00 | 0.00 | 61 | 1016.7 |
| 20260901200049 | 64 | 256 | 6.1 | 11.3 | 0.00 | 0.00 | 0.00 | 62 | 1016.7 |
| 20260901195549 | 63 | 266 | 5.2 | 11.3 | 0.00 | 0.00 | 0.00 | 63 | 1016.7 |
| 20260901195051 | 63 | 238 | 5.2 | 10.4 | 0.00 | 0.00 | 0.00 | 64 | 1016.6 |